This is the latest recevied weather packets stored in our database for station/object AI5KP-13. If no packets are shown the sender has not sent any weather packets the latest 1 day(s).
| Time | Temp. | Humidity | Pressure | Rain* | Wind** | Luminosity | Snow |
|---|---|---|---|---|---|---|---|
| 1778041617 | 8.89° C | 94% | 1011.1 hPa | 0 mm | 2.68 m/s, 13° | 0 W/m² | - |
| 1778041314 | 9.44° C | 93% | 1011.1 hPa | 0 mm | 1.79 m/s, 337° | 0 W/m² | - |
| 1778041007 | 9.44° C | 93% | 1011 hPa | 0 mm | 1.79 m/s, 3° | 0 W/m² | - |
| 1778040703 | 9.44° C | 91% | 1010.9 hPa | 0 mm | 0.89 m/s, 9° | 0 W/m² | - |
| 1778040401 | 10° C | 91% | 1010.7 hPa | 0 mm | 1.79 m/s, 40° | 0 W/m² | - |
| 1778040098 | 10° C | 91% | 1010.7 hPa | 0 mm | 1.34 m/s, 50° | 0 W/m² | - |
| 1778039795 | 10° C | 90% | 1010.5 hPa | 0 mm | 1.34 m/s, 28° | 0 W/m² | - |
| 1778039491 | 10° C | 90% | 1010.7 hPa | 0 mm | 2.68 m/s, 40° | 0 W/m² | - |
| 1778039188 | 10° C | 90% | 1010.5 hPa | 0 mm | 1.34 m/s, 35° | 0 W/m² | - |
| 1778038885 | 10° C | 90% | 1010.6 hPa | 0 mm | 0.45 m/s, 41° | 0 W/m² | - |
| 1778038583 | 10° C | 90% | 1010.6 hPa | 0 mm | 0.89 m/s, 35° | 0 W/m² | - |
| 1778038279 | 10° C | 90% | 1010.5 hPa | 0 mm | 1.34 m/s, 11° | 0 W/m² | - |
| 1778037977 | 10° C | 90% | 1010.5 hPa | 0 mm | 1.79 m/s, 81° | 0 W/m² | - |
| 1778037674 | 10° C | 91% | 1010.3 hPa | 0 mm | 2.68 m/s, 52° | 0 W/m² | - |
| 1778037371 | 10° C | 91% | 1010 hPa | 0 mm | 2.68 m/s, 10° | 0 W/m² | - |
| 1778037068 | 10° C | 92% | 1010 hPa | 0 mm | 1.79 m/s, 50° | 0 W/m² | - |
| 1778036766 | 10° C | 92% | 1010 hPa | 0 mm | 3.13 m/s, 13° | 0 W/m² | - |
| 1778036463 | 10° C | 92% | 1009.8 hPa | 0 mm | 1.34 m/s, 34° | 0 W/m² | - |
| 1778036160 | 10° C | 91% | 1009.3 hPa | 0 mm | 4.02 m/s, 33° | 0 W/m² | - |
| 1778035856 | 10° C | 91% | 1009.2 hPa | 0 mm | 0.45 m/s, 68° | 0 W/m² | - |
| 1778035553 | 10° C | 91% | 1009.1 hPa | 0 mm | 3.13 m/s, 8° | 0 W/m² | - |
| 1778035249 | 10° C | 92% | 1008.9 hPa | 0 mm | 0.89 m/s, 70° | 0 W/m² | - |
| 1778034945 | 10° C | 92% | 1008.9 hPa | 0 mm | 1.34 m/s, 85° | 0 W/m² | - |
| 1778034643 | 10° C | 92% | 1008.8 hPa | 0 mm | 2.68 m/s, 28° | 0 W/m² | - |
| 1778034340 | 10° C | 92% | 1008.6 hPa | 0 mm | 0.89 m/s, 31° | 0 W/m² | - |
* Rain latest hour (hover to see other rain measurements)
** Current wind speed in m/s (hover to see current wind gust speed)